Medicine Hat, Alberta

9:32 AM MDT on August 28, 2016 (GMT -0600)
Medicine Hat

Weather History for CYXH - October, 2013

Change the Weather History Date:

Tuesday, October 1, 2013

  Actual Average Record
Temperature  
Mean Temperature 34 °F -  
Max Temperature 60 °F 57 °F 84 °F (2008)
Min Temperature 7 °F 32 °F -6 °F (2014)
Degree Days  
Heating Degree Days 32    
Moisture  
Dew Point 30 °F    
Average Humidity 63    
Maximum Humidity 95    
Minimum Humidity 27    
Precipitation  
Precipitation 0.00 in 0.02 in - ()
Sea Level Pressure  
Sea Level Pressure 29.79 in    
Wind  
Wind Speed 12 mph ()    
Max Wind Speed 31 mph    
Max Gust Speed 33 mph    
Visibility 10.1 miles    
Events Rain    
Averages and records for this station are not official NWS values.
T = Trace of Precipitation, MM = Missing Value Source: Averaged Metar Reports

Daily Weather History Graph

Daily Weather History Graph

Search for Another Location

Airport or City:

Trip Planner

Search our weather history database for the weather conditions in past years. The results will help you decide how hot, cold, wet, or windy it might be!

Date:

Astronomy

Oct. 01, 2013 Rise Set
Actual Time 7:23 AM MDT 7:00 PM MDT
Civil Twilight 6:51 AM MDT 7:32 PM MDT
Nautical Twilight 6:13 AM MDT 8:10 PM MDT
Astronomical Twilight 5:35 AM MDT 8:48 PM MDT
Moon 3:44 AM MDT (10/1) 5:19 PM MDT (10/1)
Length of Visible Light 12h 41m
Length of Day
11h 37m
Waning Crescent, 11% of the Moon is Illuminated
Oct 1
Waning Crescent
Oct 4
New
Oct 11
First Quarter
Oct 18
Full
Oct 26
Last Quarter

Hourly Weather History & Observations

Time (MDT) Temp. Windchill Dew Point Humidity Pressure Visibility Wind Dir Wind Speed Gust Speed Precip Events Conditions
12:00 AM 22 °F - 21 °F 93% 29.80 in - West 25.3 mph - -  
12:00 AM 33.8 °F 28.6 °F 32.0 °F 93% 29.66 in 9.0 mi South 5.8 mph - N/A   Clear
1:00 AM 32.0 °F 26.4 °F 30.2 °F 93% 29.68 in 9.0 mi WSW 5.8 mph - N/A   Clear
2:00 AM 35.6 °F 29.9 °F 30.2 °F 81% 29.69 in 9.0 mi SSW 6.9 mph - N/A   Clear
3:00 AM 41.0 °F 34.3 °F 32.0 °F 70% 29.69 in 9.0 mi South 11.5 mph - N/A   Clear
4:00 AM 41.0 °F 35.2 °F 32.0 °F 70% 29.70 in 9.0 mi SW 9.2 mph - N/A   Clear
5:00 AM 41.0 °F 34.7 °F 33.8 °F 76% 29.71 in 9.0 mi SSW 10.4 mph 17.3 mph N/A   Clear
6:00 AM 18 °F - 17 °F 95% 29.88 in - West 27.6 mph - -  
6:00 AM 37.4 °F 31.4 °F 33.8 °F 87% 29.73 in 9.0 mi South 8.1 mph - N/A   Clear
7:00 AM 37.4 °F - 32.0 °F 81% 29.74 in 30.0 mi SSW 2.3 mph - N/A   Clear
8:00 AM 39.2 °F 32.0 °F 33.8 °F 81% 29.76 in 30.0 mi SSW 11.5 mph - N/A   Clear
9:00 AM 46.4 °F 40.4 °F 33.8 °F 62% 29.76 in 30.0 mi SW 13.8 mph - N/A   Partly Cloudy
10:00 AM 51.8 °F - 32.0 °F 47% 29.76 in 30.0 mi WSW 23.0 mph - N/A   Partly Cloudy
11:00 AM 55.4 °F - 28.4 °F 36% 29.77 in 30.0 mi WSW 26.5 mph 33.4 mph N/A   Partly Cloudy
12:00 PM 7 °F - 5 °F 85% 29.93 in - West 31.1 mph - -  
12:00 PM 55.4 °F - 28.4 °F 36% 29.78 in 30.0 mi WSW 20.7 mph 27.6 mph N/A   Scattered Clouds
1:00 PM 57.2 °F - 28.4 °F 33% 29.78 in 30.0 mi West 11.5 mph - N/A   Scattered Clouds
2:00 PM 60.8 °F - 26.6 °F 27% 29.76 in 30.0 mi West 17.3 mph - N/A   Mostly Cloudy
3:00 PM 55.4 °F - 28.4 °F 36% 29.78 in 30.0 mi WSW 12.7 mph 21.9 mph N/A Rain Light Rain Showers
4:00 PM 55.4 °F - 33.8 °F 44% 29.80 in 30.0 mi NNW 8.1 mph - N/A Rain Light Rain Showers
4:32 PM 53.6 °F - 33.8 °F 47% 29.82 in 30.0 mi WNW 23.0 mph 28.8 mph N/A   Mostly Cloudy
5:00 PM 51.8 °F - 35.6 °F 54% 29.84 in 30.0 mi West 13.8 mph 26.5 mph N/A   Mostly Cloudy
6:00 PM 53.6 °F - 33.8 °F 47% 29.83 in 30.0 mi SW 9.2 mph - N/A   Mostly Cloudy
7:00 PM 50.0 °F - 35.6 °F 58% 29.85 in 30.0 mi SSW 10.4 mph - N/A   Scattered Clouds
8:00 PM 48.2 °F - 30.2 °F 50% 29.86 in 15.0 mi SSW 12.7 mph - N/A   Partly Cloudy
9:00 PM 42.8 °F 38.0 °F 30.2 °F 61% 29.88 in 15.0 mi SSW 8.1 mph - N/A   Partly Cloudy
10:00 PM 42.8 °F 38.0 °F 28.4 °F 57% 29.90 in 9.0 mi SW 8.1 mph - N/A   Clear
11:00 PM 42.8 °F 36.2 °F 30.2 °F 61% 29.90 in 9.0 mi WSW 12.7 mph 19.6 mph N/A   Clear